NUSAT-1 (FRESCO) (41557 NORAD) Tracking and Keplerian Element Data

This shows tracking and keplerian element data for the satellite.

Feedback or suggestion? Click here.




ElementValue
Catalog41557
NameNUSAT-1 (FRESCO)
Epoch Orbit22349
Epoch Day154.51367505
Epoch Year2020
RAAN244.8344
Inclination97.403
Eccentricity0.0014756
Argument of Perigee136.0386
Mean Anonmoly224.203
Mean Motion15.2799396
Decay Rate1.068E-05
L11 41557U 16033B 20154.51367505 .00001068 00000-0 41729-4 0 9991
L22 41557 97.4030 244.8344 0014756 136.0386 224.2030 15.27993960223490

Live tracking and technical data element details for NUSAT-1 (FRESCO) (NORAD 41557). NUSAT-1 (FRESCO) can be tracked NOW for your location showing map with azimuth and elevation plus other details from your city location.

Track the satellite on the map from your city or location and see movement details for azimuth, elevation, latitude, longitude, range, height, and movement on the map or in text.







IsCatalogInMostPopularTable: catalog: 41557, numindb: 364
Update: records affected: 1



GetName: 41557 NUSAT-1 (FRESCO)

Hit Count: updated at: Thu, 04 Jun 2020 08:53:29 GMT